THOR ABLESTAR DEB, 141

Orbit data source: Space-Track

THOR ABLESTAR DEB, 141 is space debris in LEO originally from a launch on Thu, 29 Jun 1961 UTC launched from the Air Force Eastern Test Range (AFETR). Debris objects in space refer to the collection of defunct objects orbiting the Earth. Examples of debris include non-operational satellites, rocket bodies, and fragments generated from explosions, collisions, or faulty payload assembly.

Loading next visibility...
Identifier
141, 1961-015AB
Orbit
LEO
Last TLE update
12 hours ago
Origin
Manufacturer
Unknown
Mission
Spacecraft
Bus & Motor
Unknown
Mass
Unknown
Launch date (UTC)
1961-06-29 (64 years ago)
Launch vehicle
Unknown
Launch site
Air Force Eastern Test Range (AFETR)
Object type
Payload
Rocket body
Debris
Shape & HBR
Unknown
Radar Cross Section
Medium (>0.1 m² and <1 m²)

Expand to show TLE details & history

TLE from 12 hours ago
0 THOR ABLESTAR DEB
1 00141U 61015AB  25128.70498712  .00000363  00000-0  36052-3 0  9996
2 00141  66.5890 316.8552 0061042 307.6618  51.8929 13.88634025215659
Epoch: 2025-05-08T16:55Z
Definitive object data (Epoch: 2025-05-08T16:55:10.887Z)
Latitude
-0.00004°
Longitude
-163.71183°
Altitude
908.103 km
Speed
7.412 km/s
True Right ascension
21h 07m 25s
True Declination
0° 00' 00"
Sunlit
Object was in daylight at TLE epoch
Visualization TLE readout
Latitude
12.31833°
Longitude
-159.55812°
Altitude
916.44 km
Speed
7.404 km/s
Apparent Right ascension
22h 55m 38s
Apparent Declination
-13° 23' 13"
Sunlit
Object is in daylight
Visualization observer readout
Local Sidereal Time
13:13:36
Azimuth
58.548° ENE
Elevation
-49.779°
Doppler factor
1
Orbital elements
Apogee altitude
976.463 km
Perigee altitude
887.219 km
Semi-major axis
7,309.978 km
Eccentricity
0.0061042
Inclination
66.589°
RAAN
316.8552°
Arg. of periapsis
307.6618°
True anomaly
52.44589°
Mean anomaly
51.8929°
Eccentric anomaly
52.16914°
Mean motion
3.47271 °/min
BSTAR
0.00036052
Orbital period
103.67 mins
Loading maneuver chart data...
Loading SW <> Apogee altitude chart data...

THOR ABLESTAR DEB Visibility forecast

Observer location: undefined°, undefined°

Span
Click to sort rows by Start time (UTC) header in descending order
Start Az.
Max El. time (UTC)
Max El. Az.
Max El.
End time (UTC)
End Az.
12 mins2025-05-09 13:45:59.684Z194.234° SSW2025-05-09 13:51:59.684Z109.826° ESE41.785°2025-05-09 13:57:59.684Z35.491° NE
8 mins2025-05-09 15:35:59.684Z275.232° WNW2025-05-09 15:38:59.684Z313.899° NW22.798°2025-05-09 15:43:59.684Z7.941° NNE
5 mins2025-05-09 21:06:59.684Z16.443° NNE2025-05-09 21:08:59.684Z36.88° NE14.183°2025-05-09 21:11:59.684Z66.246° ENE
11 mins2025-05-09 22:51:59.684Z338.936° N2025-05-09 22:56:59.684Z62.184° ENE42.127°2025-05-09 23:02:59.684Z139.392° SSE
7 mins2025-05-10 00:39:59.684Z289.43° WNW2025-05-10 00:42:59.684Z255.061° W19.895°2025-05-10 00:46:59.684Z212.393° SW
|